Regional Weather Roundup
Issued by NWS

Home | Current Version | Previous Version | Graphics & Text | Print | Product List | Glossary On
Versions: 1 2 3 4 5 6 7 8 9 10 11 12 13 14 15 16 17 18 19 20 21 22 23 24 25 26 27 28 29 30 31 32 33 34 35 36 37 38 39 40 41 42 43 44 45 46 47 48 49 50
000
ASUS44 KMEG 212110
RWRTN
TENNESSEE HOURLY STATE WEATHER ROUNDUP
NATIONAL WEATHER SERVICE MEMPHIS TN
400 PM CDT THU AUG 21 2014

TNZ002-004-019-021-049-052-054-088>092-212200-
WEST TENNESSEE

CITY           SKY/WX    TMP DP  RH WIND       PRES   REMARKS
MEMPHIS INTL   MOSUNNY   95  72  47 SW10      30.06F HX 103
NWS MEMPHIS      N/A     93 N/A N/A MISG        N/A
JACKSON        MOSUNNY   91  74  57 SW5       30.06F HX 100
DYERSBURG      MOSUNNY   91  70  49 SW9       30.04F HX  97
UNION CITY     SUNNY     90  75  62 SW12      30.02F HX 100
PARIS          MOSUNNY   90  72  55 S12       30.05F HX  96
HUNTINGDON     SUNNY     89  72  57 SW8       30.05F HX  96
LEXINGTON      MOSUNNY   93  73  52 SW8       30.06F HX 102
SAVANNAH       SUNNY     91  75  59 SW10      30.08S HX 102
$$

TNZ008-025-027-028-033-062-065-066-212200-
NORTH MIDDLE TENNESSEE

CITY           SKY/WX    TMP DP  RH WIND       PRES   REMARKS
NASHVILLE      PTSUNNY   92  69  47 SW9       30.06F HX  97
PORTLAND       SUNNY     90  70  51 VRB7      30.06F HX  95
CLARKSVILLE    MOSUNNY   91  73  55 SW12      30.04F HX  99
SMYRNA         MOSUNNY   93  71  48 W6        30.07F HX  99
MURFREESBORO   MOSUNNY   93  67  42 VRB5      30.06F HX  96
COOKEVILLE     SUNNY     91  73  55 W5        30.11S HX 100
GALLATIN       MOSUNNY   93  73  52 VRB6      30.07F HX 101
CROSSVILLE     SUNNY     85  67  54 W7        30.16F
$$

TNZ061-075-076-078-094-096-097-212200-
SOUTH MIDDLE TENNESSEE

CITY           SKY/WX    TMP DP  RH WIND       PRES   REMARKS
LEWISBURG      SUNNY     93  69  45 W3        30.09F HX  98
FAYETTEVILLE   MOSUNNY   90  68  48 CALM      30.10F HX  93
TULLAHOMA      SUNNY     91  68  46 W8        30.12F HX  95
WINCHESTER     SUNNY     90  72  55 CALM      30.11S HX  96
MCMINNVILLE    SUNNY     91  73  55 W7        30.10F HX 100
COLUMBIA       MOSUNNY   93  73  52 VRB3      30.07F HX 102
SHELBYVILLE    SUNNY     93  73  52 W6        30.10F HX 102
$$

TNZ017-018-042-046-047-212200-
NORTHEAST TENNESSEE

CITY           SKY/WX    TMP DP  RH WIND       PRES   REMARKS
TRI CITIES     MOSUNNY   85  70  60 W7        30.12F
ELIZABETHTON   PTCLDY    82  70  65 W5        30.13F
$$

TNZ012-013-036-069-073-074-212200-
CENTRAL EAST TENNESSEE

CITY           SKY/WX    TMP DP  RH WIND       PRES   REMARKS
KNOXVILLE      MOSUNNY   87  71  58 SW7       30.09F HX  93
OAK RIDGE      MOSUNNY   89  72  56 VRB3      30.11F HX  96
GATLINBURG     CLEAR     90  70  51 W7        30.10S HX  95
MORRISTOWN     CLEAR     88  72  58 W6        30.13F HX  94
$$

TNZ083-085-099-212200-
SOUTHEAST TENNESSEE

CITY           SKY/WX    TMP DP  RH WIND       PRES   REMARKS
CHATTANOOGA    MOSUNNY   93  66  40 W9        30.09F HX  96
$$

SKY/WX REPORTED AS FAIR MEANS FEW OR NO CLOUDS BELOW
12 THOUSAND FEET.



USA.gov is the U.S. government's official web portal to all federal, state and local government web resources and services.